Weather reports worldwide

Advertisment
Leucate/Semaphore, France (7666): temperature & dewpoint: 13.12.2018 05:00:00 - 19.12.2018 05:00:00 (CET)Leucate/Semaphore, France (7666): wind speed & gusts: 13.12.2018 05:00:00 - 19.12.2018 05:00:00 (CET)Leucate/Semaphore, France (7666): wind direction: 13.12.2018 05:00:00 - 19.12.2018 05:00:00 (CET)Leucate/Semaphore, France (7666): reduced air pressure: 13.12.2018 05:00:00 - 19.12.2018 05:00:00 (CET)Leucate/Semaphore, France (7666): visibility: 13.12.2018 05:00:00 - 19.12.2018 05:00:00 (CET)Leucate/Semaphore, France (7666): precipitation: 13.12.2018 05:00:00 - 19.12.2018 05:00:00 (CET)
Date & Time tt [°C] td [°C] ff [km/h] ff [kn] fx [km/h] fx [kn] dd ppp [hPa] vv [km] rr [mm]
19.12.2018 05:00:00 10,2 8,0 11 6 23 12 WNW 1016,7 - 0,0
19.12.2018 04:00:00 10,2 7,6 13 7 23 13 NW 1017,0 15 0,0
19.12.2018 03:00:00 9,7 7,5 11 6 21 12 W 1017,4 - 0,0
19.12.2018 02:00:00 9,5 7,3 13 7 20 11 NW 1017,1 - 0,0
19.12.2018 01:00:00 8,3 6,4 14 8 18 10 W 1017,4 - 0,0
19.12.2018 00:00:00 8,4 6,0 12 6 19 10 W 1017,9 - 0,0
18.12.2018 23:00:00 9,0 6,4 14 8 21 12 NW 1017,7 - 0,0
18.12.2018 22:00:00 8,6 6,0 13 7 18 10 NW 1017,6 15 0,0
18.12.2018 21:00:00 8,8 6,1 12 6 18 10 NW 1017,7 - 0,0
18.12.2018 20:00:00 10,4 5,8 2 1 14 7 ESE 1017,8 - 0,0
18.12.2018 19:00:00 9,5 6,0 4 2 14 8 NNW 1018,0 15 0,0
18.12.2018 18:00:00 9,6 6,1 9 5 14 8 NW 1018,1 - 0,0
18.12.2018 17:00:00 10,0 6,3 9 5 18 10 NW 1018,5 - 0,0
18.12.2018 16:00:00 11,4 6,7 11 6 16 9 NNW 1018,9 15 0,0
18.12.2018 15:00:00 11,4 6,1 6 3 16 8 N 1019,4 - 0,0
18.12.2018 14:00:00 11,3 5,6 7 4 18 10 ESE 1020,2 - 0,0
18.12.2018 13:00:00 11,0 6,3 11 6 21 11 SSE 1020,8 15 0,0
18.12.2018 12:00:00 11,5 6,2 11 6 51 28 SSE 1021,9 - 0,0
18.12.2018 11:00:00 12,5 9,0 29 16 62 33 ENE 1022,4 - 0,0
18.12.2018 10:00:00 11,9 7,6 41 22 59 32 E 1022,6 12 0,0
18.12.2018 09:00:00 12,4 7,1 40 21 64 35 E 1022,9 - 0,0
18.12.2018 08:00:00 7,1 4,9 9 5 22 12 NW 1023,7 - 0,0
18.12.2018 07:00:00 6,5 4,3 12 6 21 11 NW 1023,7 20 0,0
18.12.2018 06:00:00 10,1 6,1 11 6 46 25 SSW 1023,8 - 0,0
18.12.2018 05:00:00 9,5 7,6 11 6 32 18 WSW 1024,2 - 0,0
18.12.2018 04:00:00 8,8 5,9 8 5 19 11 NNE 1025,0 - 0,0
18.12.2018 03:00:00 7,5 5,3 13 7 16 9 N 1025,8 - 0,0
18.12.2018 02:00:00 8,1 3,4 4 2 13 7 N 1026,4 - 0,0
18.12.2018 01:00:00 9,0 3,4 12 6 20 11 SW 1027,0 - 0,0
18.12.2018 00:00:00 7,9 4,5 17 9 19 11 SW 1027,8 - 0,0
17.12.2018 23:00:00 8,0 3,8 13 7 22 12 WSW 1028,4 - 0,0
17.12.2018 22:00:00 8,2 4,0 16 9 23 12 NW 1028,0 - 0,0
17.12.2018 21:00:00 9,4 4,6 10 5 26 14 NW 1028,2 - 0,0
17.12.2018 20:00:00 9,0 4,8 13 7 16 9 NNW 1028,6 - 0,0
17.12.2018 19:00:00 10,1 5,5 12 6 25 14 NW 1028,4 20 0,0
17.12.2018 18:00:00 10,6 5,8 16 9 29 16 NW 1028,3 - 0,0
17.12.2018 17:00:00 11,3 5,8 18 10 40 21 NW 1027,9 - 0,0
17.12.2018 16:00:00 11,9 5,3 23 12 42 23 NW 1027,0 - 0,0
17.12.2018 15:00:00 13,0 5,2 21 11 45 25 NW 1027,1 - 0,0
17.12.2018 14:00:00 13,2 4,9 25 13 53 29 NW 1026,7 - 0,0
17.12.2018 13:00:00 13,3 5,0 21 11 63 34 NW 1026,8 20 0,0
17.12.2018 12:00:00 12,7 5,1 18 10 54 29 NW 1027,2 - 0,0
17.12.2018 11:00:00 12,5 4,5 24 13 55 30 NW 1026,7 - 0,0
17.12.2018 10:00:00 11,3 4,3 24 13 53 28 NW 1026,0 - 0,0
17.12.2018 09:00:00 10,1 3,8 21 11 69 38 NW 1024,6 - 0,0
17.12.2018 08:00:00 9,8 4,0 29 16 56 31 NW 1024,0 - 0,0
17.12.2018 07:00:00 9,5 3,9 24 13 59 32 NW 1023,1 20 0,0
17.12.2018 06:00:00 9,2 3,6 27 15 59 32 NW 1022,6 - 0,0
17.12.2018 05:00:00 9,1 3,5 26 14 69 37 NW 1022,3 - 0,0
17.12.2018 04:00:00 9,8 3,1 26 14 69 37 WNW 1021,6 20 0,0
17.12.2018 03:00:00 10,1 3,6 27 14 56 30 NW 1020,6 - 0,0
17.12.2018 02:00:00 10,2 4,1 19 10 58 31 NW 1020,3 - 0,0
17.12.2018 01:00:00 10,5 4,4 24 13 84 45 WNW 1019,2 - 0,0
17.12.2018 00:00:00 10,7 4,6 49 26 95 51 NW 1016,5 - 0,0
16.12.2018 23:00:00 10,7 4,8 16 9 58 31 NW 1017,3 - 0,0
16.12.2018 22:00:00 10,6 5,1 19 11 39 21 NW 1017,6 - 0,0
16.12.2018 21:00:00 10,5 7,4 15 8 28 15 NW 1016,9 - 0,0
16.12.2018 20:00:00 10,1 7,7 17 9 32 18 WNW 1015,5 - 0,2
16.12.2018 19:00:00 8,9 8,1 13 7 32 17 W 1015,3 12 2,6
16.12.2018 18:00:00 8,1 7,3 16 9 48 26 NW 1014,4 - 5,3
16.12.2018 17:00:00 8,5 7,7 22 12 54 29 NNW 1013,8 - 0,8
16.12.2018 16:00:00 9,2 8,4 4 2 16 9 W 1013,0 2,0 0,2
16.12.2018 15:00:00 9,6 9,0 3 2 16 8 SE 1013,7 - 0,4
16.12.2018 14:00:00 8,1 7,3 13 7 20 11 N 1015,0 - 1,4
16.12.2018 13:00:00 8,2 7,4 8 5 23 12 NNW 1016,1 - 4,7
16.12.2018 12:00:00 7,9 7,0 14 7 21 11 NNW 1017,1 - 2,8
16.12.2018 11:00:00 8,1 7,0 12 7 25 13 NNW 1017,6 - 1,2
16.12.2018 10:00:00 7,9 6,7 17 9 24 13 NNW 1017,6 - 1,2
16.12.2018 09:00:00 8,2 6,3 7 4 10 6 NNW 1017,2 - 0,0
16.12.2018 08:00:00 7,8 5,8 5 3 8 4 NNW 1017,1 - 0,0
16.12.2018 07:00:00 7,6 5,4 6 3 11 6 WNW 1016,9 - 0,0
16.12.2018 06:00:00 7,5 5,0 9 5 24 13 NW 1017,3 - 0,0
16.12.2018 05:00:00 7,7 5,3 14 8 29 16 N 1017,6 - 0,0
16.12.2018 04:00:00 7,2 5,2 21 11 36 19 NNW 1018,3 16 0,0
16.12.2018 03:00:00 7,7 5,8 21 11 37 20 N 1018,1 - 0,0
16.12.2018 02:00:00 8,4 6,4 20 11 30 16 NNW 1017,7 - 0,0
16.12.2018 01:00:00 7,9 5,9 15 8 28 15 NW 1017,7 - 0,0
16.12.2018 00:00:00 7,9 6,0 19 11 31 17 NNW 1018,4 - 0,0
15.12.2018 23:00:00 8,6 6,7 18 10 29 16 NNW 1018,6 - 0,0
15.12.2018 22:00:00 10,5 7,0 4 2 17 9 NNW 1018,9 - 0,0
15.12.2018 21:00:00 11,1 7,2 14 7 24 13 ESE 1019,0 - 0,0
15.12.2018 20:00:00 11,1 7,2 12 6 21 12 E 1019,7 - 0,0
15.12.2018 19:00:00 11,4 6,9 11 6 22 12 E 1019,8 20 0,0
15.12.2018 18:00:00 11,5 7,0 14 8 23 13 E 1019,4 - 0,0
15.12.2018 17:00:00 11,6 6,7 9 5 22 12 ESE 1019,2 - 0,0
15.12.2018 16:00:00 11,9 6,8 16 8 25 13 ESE 1019,3 20 0,0
15.12.2018 15:00:00 12,5 6,3 7 4 14 7 SSE 1019,2 - 0,0
15.12.2018 14:00:00 12,2 6,2 11 6 15 8 S 1019,5 - 0,0
15.12.2018 13:00:00 12,8 5,7 3 2 11 6 S 1019,9 - 0,0
15.12.2018 12:00:00 12,4 5,5 5 3 26 14 W 1020,9 - 0,0
15.12.2018 11:00:00 12,4 5,8 11 6 26 14 WNW 1021,4 - 0,0
15.12.2018 10:00:00 11,1 5,4 10 5 38 20 WNW 1021,0 - 0,0
15.12.2018 09:00:00 9,1 5,1 19 11 35 19 NW 1020,3 - 0,0
15.12.2018 08:00:00 8,5 5,1 19 10 31 17 NW 1020,1 - 0,0
15.12.2018 07:00:00 8,4 4,8 9 5 33 18 NW 1020,1 20 0,0
15.12.2018 06:00:00 8,6 4,6 23 12 45 24 NW 1019,9 - 0,0
15.12.2018 05:00:00 8,4 4,4 27 15 61 33 NW 1019,6 - 0,0
15.12.2018 04:00:00 8,4 4,4 25 14 48 26 NW 1019,5 20 0,0
15.12.2018 03:00:00 8,6 4,4 19 11 50 27 NW 1020,2 - 0,0
15.12.2018 02:00:00 8,9 4,5 21 12 50 27 NW 1020,0 - 0,0
15.12.2018 01:00:00 8,9 4,7 30 16 70 38 NW 1019,9 - 0,0
15.12.2018 00:00:00 9,2 5,0 33 18 64 35 NW 1019,7 - 0,0
14.12.2018 23:00:00 9,1 4,7 21 11 61 33 NW 1019,4 - 0,0
14.12.2018 22:00:00 9,5 4,9 29 16 63 34 NW 1019,1 - 0,0
14.12.2018 21:00:00 9,2 3,8 31 17 65 35 NW 1018,6 - 0,0
14.12.2018 20:00:00 9,1 3,5 28 15 69 37 NW 1018,1 - 0,0
14.12.2018 19:00:00 9,4 3,4 35 19 74 40 NW 1017,9 20 0,0
14.12.2018 18:00:00 9,8 4,6 34 19 74 40 NW 1017,3 - 0,0
14.12.2018 17:00:00 9,9 5,3 31 17 70 38 NW 1016,8 - 0,0
14.12.2018 16:00:00 10,6 5,6 29 16 59 32 NW 1016,3 - 0,0
14.12.2018 15:00:00 11,0 5,7 32 17 65 35 NW 1015,4 - 0,0
14.12.2018 14:00:00 10,4 5,2 26 14 54 29 NW 1015,2 - 0,0
14.12.2018 13:00:00 11,4 5,9 13 7 41 22 NW 1015,4 20 0,0
14.12.2018 12:00:00 11,0 5,7 21 11 44 24 NW 1015,7 - 0,0
14.12.2018 11:00:00 9,7 6,0 23 13 53 29 NW 1015,5 - 0,0
14.12.2018 10:00:00 8,9 6,2 19 10 39 21 NW 1014,9 16 0,0
14.12.2018 09:00:00 7,6 6,1 15 8 32 17 NW 1013,9 - 0,0
14.12.2018 08:00:00 7,3 6,1 10 6 20 11 NNW 1013,2 - 0,0
14.12.2018 07:00:00 7,4 6,0 11 6 22 12 NNW 1012,9 16 0,2
14.12.2018 06:00:00 7,5 6,0 11 6 29 16 NNW 1012,5 - 0,2
14.12.2018 05:00:00 7,1 5,6 18 10 29 15 NNW 1012,2 - 0,2
14.12.2018 04:00:00 7,1 5,7 16 9 31 17 NNW 1012,1 16 0,0
14.12.2018 03:00:00 7,4 6,0 16 9 31 17 NNW 1011,8 - 0,2
14.12.2018 02:00:00 7,7 6,2 19 11 50 27 NNW 1011,4 - 0,2
14.12.2018 01:00:00 7,6 6,2 23 12 44 24 N 1010,9 - 0,6
14.12.2018 00:00:00 7,4 6,2 27 15 49 27 NNW 1010,6 - 0,4
13.12.2018 23:00:00 6,9 5,8 31 17 61 33 NNW 1009,7 - 3,9
13.12.2018 22:00:00 6,7 5,8 31 17 53 29 NNW 1008,7 - 13,7
13.12.2018 21:00:00 6,8 6,1 33 18 65 35 NNW 1007,6 - 14,6
13.12.2018 20:00:00 6,7 5,8 31 17 61 33 NW 1006,5 - 25,5
13.12.2018 19:00:00 7,1 6,0 31 17 55 30 NNW 1005,7 8 5,8
13.12.2018 18:00:00 6,8 5,7 29 16 50 27 NW 1005,2 - 3,9
13.12.2018 17:00:00 6,7 5,5 28 15 47 25 NNW 1004,8 - 1,2
13.12.2018 16:00:00 6,2 4,7 26 14 47 25 NW 1004,8 - 0,8
13.12.2018 15:00:00 6,1 3,9 30 16 49 27 NNW 1004,7 - 1,0
13.12.2018 14:00:00 6,1 2,4 29 16 44 24 NNW 1005,3 - 0,0
13.12.2018 13:00:00 6,0 2,1 27 15 43 23 NNW 1006,2 - 0,2
13.12.2018 12:00:00 6,5 2,0 23 12 36 20 NNW 1007,3 - 0,0
13.12.2018 11:00:00 6,5 2,0 20 11 40 22 NNW 1008,1 - 0,0
13.12.2018 10:00:00 6,1 2,0 26 14 42 23 NNW 1008,5 16 0,0
13.12.2018 09:00:00 6,5 3,3 21 12 37 20 NNW 1009,2 - 0,0
13.12.2018 08:00:00 7,2 3,8 23 12 40 22 NNW 1009,1 - 0,0
13.12.2018 07:00:00 9,5 6,9 12 7 29 15 N 1009,2 16 0,0
13.12.2018 06:00:00 7,8 4,7 14 8 25 13 NW 1010,1 - 0,0
13.12.2018 05:00:00 10,8 5,5 11 6 27 14 E 1010,6 - 0,0

tt = temperature
td = dewpoint
ff = wind speed
fx = gusts
dd = wind direction
ppp = reduced air pressure
vv = visibility
rr = precipitation

Next stations